TimeEDT,TemperatureF,Dew PointF,Humidity,Sea Level PressureIn,VisibilityMPH,Wind Direction,Wind SpeedMPH,Gust SpeedMPH,PrecipitationIn,Events,Conditions,WindDirDegrees,DateUTC
12:54 AM,63.0,51.1,65,30.17,10.0,WSW,6.9,-,N/A,,Partly Cloudy,250,2013-06-20 04:54:00
1:54 AM,60.1,52.0,75,30.17,10.0,SSW,6.9,-,N/A,,Partly Cloudy,210,2013-06-20 05:54:00
2:54 AM,59.0,52.0,78,30.17,10.0,SW,6.9,-,N/A,,Partly Cloudy,230,2013-06-20 06:54:00
3:54 AM,60.1,52.0,75,30.19,10.0,West,3.5,-,N/A,,Clear,280,2013-06-20 07:54:00
4:54 AM,57.9,51.1,78,30.20,10.0,NW,5.8,-,N/A,,Clear,310,2013-06-20 08:54:00
5:54 AM,59.0,48.0,67,30.22,10.0,NNW,6.9,-,N/A,,Clear,330,2013-06-20 09:54:00
6:54 AM,61.0,46.9,60,30.24,10.0,NNW,4.6,-,N/A,,Clear,340,2013-06-20 10:54:00
7:54 AM,64.9,46.9,52,30.25,10.0,NNE,3.5,-,N/A,,Clear,20,2013-06-20 11:54:00
8:54 AM,68.0,46.9,47,30.26,10.0,Calm,Calm,-,N/A,,Clear,0,2013-06-20 12:54:00
9:54 AM,66.0,51.1,59,30.26,10.0,SE,8.1,-,N/A,,Clear,140,2013-06-20 13:54:00
10:54 AM,66.0,51.1,59,30.26,10.0,SE,9.2,-,N/A,,Clear,140,2013-06-20 14:54:00
11:54 AM,66.9,52.0,59,30.26,10.0,SE,9.2,-,N/A,,Scattered Clouds,130,2013-06-20 15:54:00
12:54 PM,70.0,52.0,53,30.25,10.0,East,9.2,-,N/A,,Scattered Clouds,80,2013-06-20 16:54:00
1:54 PM,70.0,54.0,57,30.24,10.0,East,10.4,-,N/A,,Scattered Clouds,100,2013-06-20 17:54:00
2:54 PM,70.0,55.0,59,30.24,10.0,ESE,13.8,-,N/A,,Scattered Clouds,120,2013-06-20 18:54:00
3:54 PM,72.0,54.0,53,30.22,10.0,ESE,15.0,-,N/A,,Scattered Clouds,120,2013-06-20 19:54:00
4:54 PM,72.0,57.0,59,30.21,10.0,ESE,15.0,-,N/A,,Scattered Clouds,120,2013-06-20 20:54:00
5:54 PM,72.0,55.0,55,30.20,10.0,ESE,13.8,-,N/A,,Scattered Clouds,120,2013-06-20 21:54:00
6:54 PM,70.0,57.9,65,30.21,10.0,South,8.1,-,N/A,,Scattered Clouds,170,2013-06-20 22:54:00
7:54 PM,73.0,52.0,48,30.21,10.0,SSW,12.7,20.7,N/A,,Scattered Clouds,200,2013-06-20 23:54:00
8:54 PM,70.0,55.0,59,30.22,10.0,SSW,13.8,-,N/A,,Scattered Clouds,200,2013-06-21 00:54:00
9:54 PM,68.0,55.9,65,30.24,10.0,SSW,11.5,-,N/A,,Scattered Clouds,200,2013-06-21 01:54:00
10:54 PM,66.0,55.9,70,30.25,10.0,SSW,10.4,-,N/A,,Partly Cloudy,200,2013-06-21 02:54:00
11:54 PM,64.9,54.0,68,30.25,10.0,SSW,10.4,-,N/A,,Partly Cloudy,210,2013-06-21 03:54:00